| time (UTC) | temp F | wind direction | speed MPH | gust MPH | rain 1hr in | rain 24hr in | rain mn in | humidity % | barometer mb |
| 20260507003039 | 46 | 84 | 0.0 | 0.0 | 0.00 | 0.59 | 0.23 | 77 | 1024.1 |
| 20260507000351 | 47 | 84 | 0.0 | 0.0 | 0.00 | 0.59 | 0.23 | 75 | 1023.9 |
| 20260507000033 | 47 | 84 | 0.0 | 1.0 | 0.00 | 0.59 | 0.23 | 76 | 1023.8 |
| 20260506233052 | 47 | 84 | 1.0 | 3.0 | 0.00 | 0.90 | 0.23 | 69 | 1023.5 |
| 20260506233010 | 47 | 84 | 1.0 | 3.0 | 0.00 | 0.90 | 0.23 | 69 | 1023.5 |
| 20260506230309 | 48 | 345 | 1.0 | 2.0 | 0.00 | 0.90 | 0.23 | 70 | 1023.5 |
| 20260506230029 | 48 | 345 | 1.0 | 2.0 | 0.00 | 0.90 | 0.23 | 70 | 1023.5 |
| 20260506223029 | 48 | 355 | 2.0 | 6.0 | 0.00 | 1.11 | 0.23 | 70 | 1023.6 |
| 20260506220347 | 49 | 346 | 4.0 | 6.0 | 0.00 | 1.11 | 0.23 | 67 | 1023.1 |
| 20260506220047 | 49 | 355 | 2.0 | 5.0 | 0.00 | 1.11 | 0.23 | 67 | 1023.1 |
| 20260506213132 | 50 | 335 | 3.0 | 8.0 | 0.00 | 1.26 | 0.23 | 67 | 1023.0 |
| 20260506210347 | 50 | 21 | 2.0 | 10.0 | 0.00 | 1.26 | 0.23 | 68 | 1022.7 |
| 20260506210049 | 50 | 326 | 2.0 | 12.0 | 0.00 | 1.26 | 0.23 | 69 | 1022.6 |
| 20260506203021 | 50 | 280 | 2.0 | 10.0 | 0.00 | 1.45 | 0.23 | 68 | 1022.4 |
| 20260506200354 | 51 | 22 | 4.0 | 11.0 | 0.00 | 1.45 | 0.23 | 66 | 1022.4 |
| 20260506200015 | 51 | 259 | 6.0 | 11.0 | 0.00 | 1.45 | 0.23 | 64 | 1022.5 |
| 20260506193012 | 52 | 304 | 7.0 | 14.0 | 0.00 | 1.50 | 0.23 | 66 | 1022.3 |
| 20260506190313 | 53 | 327 | 6.0 | 12.0 | 0.00 | 1.50 | 0.23 | 68 | 1022.4 |
| 20260506190046 | 53 | 296 | 5.0 | 11.0 | 0.00 | 1.50 | 0.23 | 69 | 1022.5 |
| 20260506183052 | 53 | 268 | 5.0 | 15.0 | 0.00 | 1.50 | 0.23 | 72 | 1022.4 |
| 20260506180408 | 51 | 355 | 5.0 | 15.0 | 0.00 | 1.50 | 0.23 | 81 | 1022.0 |
| 20260506180024 | 51 | 302 | 6.0 | 15.0 | 0.00 | 1.50 | 0.23 | 80 | 1022.0 |
| 20260506173059 | 51 | 13 | 5.0 | 13.0 | 0.00 | 1.50 | 0.23 | 82 | 1022.3 |
| 20260506170315 | 50 | 360 | 6.0 | 11.0 | 0.00 | 1.50 | 0.23 | 87 | 1021.9 |
| 20260506170055 | 50 | 277 | 5.0 | 9.0 | 0.00 | 1.50 | 0.23 | 86 | 1021.8 |
| 20260506163014 | 50 | 281 | 6.0 | 10.0 | 0.00 | 1.50 | 0.23 | 88 | 1021.9 |
| 20260506160325 | 50 | 309 | 3.0 | 9.0 | 0.00 | 1.50 | 0.23 | 90 | 1021.5 |
| 20260506160109 | 50 | 67 | 4.0 | 9.0 | 0.00 | 1.50 | 0.23 | 90 | 1021.4 |
| 20260506153016 | 50 | 340 | 3.0 | 10.0 | 0.00 | 1.50 | 0.23 | 91 | 1021.1 |
| 20260506150334 | 50 | 288 | 6.0 | 10.0 | 0.00 | 1.50 | 0.23 | 93 | 1020.7 |
| 20260506150009 | 50 | 300 | 6.0 | 10.0 | 0.00 | 1.50 | 0.23 | 93 | 1020.6 |
| 20260506143022 | 48 | 292 | 4.0 | 9.0 | 0.00 | 1.50 | 0.23 | 94 | 1020.3 |
| 20260506140406 | 48 | 298 | 3.0 | 6.0 | 0.00 | 1.50 | 0.23 | 97 | 1020.3 |
| 20260506133013 | 48 | 292 | 1.0 | 4.0 | 0.00 | 1.50 | 0.23 | 99 | 1019.7 |
| 20260506130327 | 47 | 306 | 1.0 | 4.0 | 0.00 | 1.50 | 0.23 | 99 | 1019.2 |
| 20260506130019 | 47 | 306 | 2.0 | 4.0 | 0.00 | 1.50 | 0.23 | 99 | 1019.2 |
| 20260506123045 | 47 | 315 | 2.0 | 4.0 | 0.00 | 1.50 | 0.23 | 100 | 1019.4 |
| 20260506120358 | 47 | 306 | 1.0 | 5.0 | 0.00 | 1.50 | 0.23 | 99 | 1019.1 |
| 20260506120100 | 47 | 298 | 3.0 | 5.0 | 0.00 | 1.50 | 0.23 | 99 | 1019.2 |
| 20260506113018 | 46 | 253 | 2.0 | 3.0 | 0.01 | 1.50 | 0.23 | 99 | 1018.6 |
| 20260506110332 | 47 | 311 | 0.0 | 4.0 | 0.01 | 1.50 | 0.23 | 99 | 1018.3 |
| 20260506110034 | 47 | 355 | 2.0 | 4.0 | 0.02 | 1.50 | 0.23 | 99 | 1018.5 |
| 20260506103015 | 47 | 306 | 0.0 | 2.0 | 0.03 | 1.49 | 0.22 | 99 | 1017.6 |
| 20260506100315 | 47 | 306 | 0.0 | 4.0 | 0.04 | 1.49 | 0.22 | 99 | 1017.8 |
| 20260506100027 | 47 | 304 | 2.0 | 6.0 | 0.03 | 1.48 | 0.21 | 99 | 1018.1 |
| 20260506093053 | 47 | 317 | 1.0 | 2.0 | 0.04 | 1.46 | 0.19 | 99 | 1018.0 |
| 20260506090417 | 47 | 317 | 1.0 | 1.0 | 0.05 | 1.45 | 0.18 | 99 | 1017.3 |
| 20260506090028 | 47 | 317 | 0.0 | 1.0 | 0.05 | 1.45 | 0.18 | 99 | 1017.6 |
| 20260506083033 | 47 | 316 | 1.0 | 3.0 | 0.04 | 1.42 | 0.15 | 99 | 1018.4 |
| 20260506080328 | 47 | 313 | 1.0 | 3.0 | 0.03 | 1.40 | 0.13 | 99 | 1018.1 |
| 20260506080111 | 47 | 314 | 0.0 | 3.0 | 0.03 | 1.40 | 0.13 | 99 | 1018.1 |
| 20260506073045 | 47 | 355 | 1.0 | 3.0 | 0.02 | 1.38 | 0.11 | 99 | 1018.0 |
| 20260506070318 | 47 | 321 | 2.0 | 3.0 | 0.02 | 1.37 | 0.10 | 99 | 1017.6 |
| 20260506070121 | 47 | 319 | 2.0 | 3.0 | 0.02 | 1.37 | 0.10 | 99 | 1017.7 |
| 20260506060354 | 47 | 5 | 0.0 | 1.0 | 0.03 | 1.35 | 0.08 | 99 | 1017.9 |
| 20260506050332 | 48 | 5 | 1.0 | 2.0 | 0.04 | 1.32 | 0.05 | 99 | 1018.8 |
| 20260506050118 | 48 | 5 | 1.0 | 3.0 | 0.04 | 1.32 | 0.05 | 99 | 1018.8 |
| 20260506043054 | 48 | 302 | 1.0 | 3.0 | 0.08 | 1.30 | 0.03 | 99 | 1019.1 |
| 20260506040354 | 49 | 313 | 1.0 | 4.0 | 0.14 | 1.28 | 0.01 | 99 | 1019.3 |
| 20260506040121 | 49 | 313 | 2.0 | 4.0 | 0.13 | 1.27 | 0.00 | 99 | 1019.3 |
| 20260506033016 | 49 | 104 | 1.0 | 2.0 | 0.13 | 1.21 | 1.21 | 99 | 1019.0 |
| 20260506030332 | 49 | 137 | 0.0 | 2.0 | 0.13 | 1.14 | 1.14 | 99 | 1018.8 |
| 20260506030030 | 49 | 137 | 0.0 | 2.0 | 0.13 | 1.14 | 1.14 | 99 | 1018.9 |
| 20260506023033 | 49 | 137 | 0.0 | 1.0 | 0.10 | 1.08 | 1.08 | 99 | 1019.1 |
| 20260506020346 | 49 | 137 | 0.0 | 2.0 | 0.06 | 1.01 | 1.01 | 99 | 1018.9 |
| 20260506020049 | 49 | 137 | 0.0 | 2.0 | 0.06 | 1.01 | 1.01 | 99 | 1018.8 |
| 20260506013106 | 49 | 137 | 0.0 | 1.0 | 0.03 | 0.98 | 0.98 | 99 | 1018.5 |
| 20260506010318 | 49 | 137 | 0.0 | 1.0 | 0.03 | 0.95 | 0.95 | 98 | 1018.5 |
| 20260506010023 | 49 | 137 | 0.0 | 1.0 | 0.04 | 0.95 | 0.95 | 98 | 1018.4 |